TimeMST,TemperatureF,Dew PointF,Humidity,Sea Level PressureIn,VisibilityMPH,Wind Direction,Wind SpeedMPH,Gust SpeedMPH,PrecipitationIn,Events,Conditions,WindDirDegrees,DateUTC
12:53 AM,34.0,24.1,67,29.99,10.0,WSW,6.9,-,N/A,,Clear,250,2013-03-03 07:53:00
1:53 AM,34.0,25.0,70,29.95,10.0,WSW,6.9,-,N/A,,Clear,240,2013-03-03 08:53:00
2:53 AM,35.1,25.0,67,29.91,10.0,SW,10.4,-,N/A,,Clear,220,2013-03-03 09:53:00
3:53 AM,33.1,23.0,66,29.88,10.0,SW,9.2,-,N/A,,Clear,220,2013-03-03 10:53:00
4:53 AM,34.0,24.1,67,29.86,10.0,SW,8.1,-,N/A,,Clear,220,2013-03-03 11:53:00
5:53 AM,33.1,25.0,72,29.86,10.0,SW,10.4,-,N/A,,Clear,230,2013-03-03 12:53:00
6:53 AM,37.9,27.0,65,29.85,10.0,SW,5.8,-,N/A,,Clear,230,2013-03-03 13:53:00
7:53 AM,44.1,28.0,53,29.81,10.0,SSW,10.4,-,N/A,,Clear,210,2013-03-03 14:53:00
8:53 AM,55.9,26.1,32,29.78,10.0,WSW,12.7,-,N/A,,Clear,240,2013-03-03 15:53:00
9:53 AM,61.0,24.1,24,29.75,10.0,WSW,12.7,-,N/A,,Clear,250,2013-03-03 16:53:00
10:53 AM,60.1,23.0,24,29.73,10.0,NW,13.8,-,N/A,,Clear,310,2013-03-03 17:53:00
11:53 AM,61.0,23.0,23,29.70,10.0,NNW,9.2,-,N/A,,Clear,340,2013-03-03 18:53:00
12:53 PM,62.1,24.1,23,29.66,10.0,North,8.1,-,N/A,,Clear,350,2013-03-03 19:53:00
1:53 PM,63.0,23.0,22,29.61,10.0,NNE,13.8,-,N/A,,Clear,20,2013-03-03 20:53:00
2:53 PM,64.0,24.1,22,29.61,10.0,NNE,8.1,-,N/A,,Clear,30,2013-03-03 21:53:00
3:53 PM,64.0,24.1,22,29.60,10.0,NE,4.6,-,N/A,,Clear,40,2013-03-03 22:53:00
4:53 PM,59.0,26.1,28,29.61,10.0,ENE,6.9,-,N/A,,Clear,60,2013-03-03 23:53:00
5:53 PM,48.9,27.0,43,29.63,10.0,East,9.2,-,N/A,,Clear,80,2013-03-04 00:53:00
6:53 PM,48.0,26.1,42,29.63,10.0,ESE,6.9,-,N/A,,Clear,110,2013-03-04 01:53:00
7:53 PM,48.0,26.1,42,29.62,10.0,Calm,Calm,-,N/A,,Clear,0,2013-03-04 02:53:00
8:53 PM,39.9,26.1,58,29.60,10.0,Calm,Calm,-,N/A,,Clear,0,2013-03-04 03:53:00
9:53 PM,36.0,26.1,67,29.60,10.0,SW,9.2,-,N/A,,Clear,230,2013-03-04 04:53:00
10:53 PM,37.9,28.0,68,29.60,10.0,WSW,9.2,-,N/A,,Clear,240,2013-03-04 05:53:00
11:53 PM,37.9,28.9,70,29.60,10.0,West,9.2,-,N/A,,Mostly Cloudy,280,2013-03-04 06:53:00